[TLELIST] Archives

 

[list_settings.list_name] Current TLEs

June 10th 2010 PST

HST 1 20580U 90037B 10160.79995157 .00000418 00000-0 19150-4 0 5825 2 20580 028.4719 288.0856 0003457 118.4019 241.6867 15.00984670903644 ISS (ZARYA) 1 25544U 98067A 10161.51401451 .00007481 00000-0 61116-4 0 3140 2 25544 051.6491 264.7601 0008799 305.8465 117.8134 15.71746182662425 CXO 1 25867U 99040B 10161.12500000 .00000052 00000-0 10000-3 0 4768 2 25867 067.1053 053.9281 8153938 275.2902 358.1528 00.37800358 6365 ____________________________________________________________________ These 2-Line ...Continue Reading

[list_settings.list_name] Current TLEs

June 9th 2010 PST

HST 1 20580U 90037B 10158.80518761 .00000447 00000-0 21373-4 0 5817 2 20580 028.4719 301.1067 0003383 101.2352 258.8612 15.00983879903348 ISS (ZARYA) 1 25544U 98067A 10160.50367037 -.00002375 00000-0 -13253-4 0 3080 2 25544 051.6483 269.9329 0009192 301.4812 161.5356 15.71717853662263 CXO 1 25867U 99040B 10161.12500000 .00000052 00000-0 10000-3 0 4768 2 25867 067.1053 053.9281 8153938 275.2902 358.1528 00.37800358 6365 ____________________________________________________________________ These 2-Line ...Continue Reading

[list_settings.list_name] Current TLEs

June 8th 2010 PST

HST 1 20580U 90037B 10158.80518761 .00000447 00000-0 21373-4 0 5817 2 20580 028.4719 301.1067 0003383 101.2352 258.8612 15.00983879903348 ISS (ZARYA) 1 25544U 98067A 10159.48442881 .00084364 00000-0 63635-3 0 3013 2 25544 051.6477 275.1465 0009179 299.2879 152.7780 15.71702754662108 CXO 1 25867U 99040B 10158.45833333 .00000148 00000-0 10000-3 0 4753 2 25867 067.0880 054.0890 8153498 275.2808 355.1135 00.37806098 6353 ____________________________________________________________________ These 2-Line ...Continue Reading

[list_settings.list_name] Current TLEs

June 7th 2010 PST

HST 1 20580U 90037B 10157.80780534 .00000497 00000-0 25199-4 0 5809 2 20580 028.4715 307.6182 0003379 090.5486 269.5506 15.00983650903197 ISS (ZARYA) 1 25544U 98067A 10158.52306749 .00009432 00000-0 73406-4 0 2952 2 25544 051.6485 280.0669 0004987 296.2695 111.0534 15.72546402661957 CXO 1 25867U 99040B 10158.45833333 .00000148 00000-0 10000-3 0 4753 2 25867 067.0880 054.0890 8153498 275.2808 355.1135 00.37806098 6353 ____________________________________________________________________ These 2-Line ...Continue Reading

[list_settings.list_name] Current TLEs

June 6th 2010 PST

HST 1 20580U 90037B 10156.87691394 .00000518 00000-0 26844-4 0 5790 2 20580 028.4713 313.6980 0003307 079.9813 280.1123 15.00983176903056 ISS (ZARYA) 1 25544U 98067A 10157.32297450 .00002535 00000-0 23097-4 0 2887 2 25544 051.6493 286.2146 0005143 287.9460 160.9377 15.72519771661762 CXO 1 25867U 99040B 10155.83333333 .00000155 00000-0 10000-3 0 4744 2 25867 067.0725 054.2341 8151078 275.2570 357.8102 00.37807248 6342 ____________________________________________________________________ These 2-Line ...Continue Reading

[list_settings.list_name] Current TLEs

June 5th 2010 PST

HST 1 20580U 90037B 10155.87953018 .00000556 00000-0 29750-4 0 5783 2 20580 028.4716 320.2083 0003226 069.8389 290.2539 15.00982732902906 ISS (ZARYA) 1 25544U 98067A 10156.35912597 -.00805926 00000-0 -61077-2 0 2824 2 25544 051.6490 291.1688 0009977 040.5623 348.4691 15.73788545661612 CXO 1 25867U 99040B 10155.83333333 .00000155 00000-0 10000-3 0 4744 2 25867 067.0725 054.2341 8151078 275.2570 357.8102 00.37807248 6342 ____________________________________________________________________ These 2-Line ...Continue Reading

[list_settings.list_name] Current TLEs

June 4th 2010 PST

HST 1 20580U 90037B 10154.88214637 .00000521 00000-0 27104-4 0 5772 2 20580 028.4705 326.7173 0003203 058.4260 301.6674 15.00981809902756 ISS (ZARYA) 1 25544U 98067A 10155.41950836 .00013940 00000-0 94785-4 0 2782 2 25544 051.6476 295.9821 0009512 022.7652 076.2372 15.75203800661469 CXO 1 25867U 99040B 10155.83333333 .00000155 00000-0 10000-3 0 4744 2 25867 067.0725 054.2341 8151078 275.2570 357.8102 00.37807248 6342 ____________________________________________________________________ These 2-Line ...Continue Reading

[list_settings.list_name] Current TLEs

June 3rd 2010 PST

HST 1 20580U 90037B 10153.55230267 .00000387 00000-0 16839-4 0 5764 2 20580 028.4700 335.3961 0003094 045.7901 314.3149 15.00980246902551 ISS (ZARYA) 1 25544U 98067A 10154.46893444 .00027498 00000-0 18262-3 0 2752 2 25544 051.6468 300.8667 0009241 019.8297 085.1575 15.75197254661318 CXO 1 25867U 99040B 10153.16666667 .00000079 00000-0 10000-3 0 4731 2 25867 067.0638 054.3373 8147435 275.2439 354.8344 00.37804636 6339 ____________________________________________________________________ These 2-Line ...Continue Reading

[list_settings.list_name] Current TLEs

June 2nd 2010 PST

HST 1 20580U 90037B 10150.02820027 .00000387 00000-0 16839-4 0 5751 2 20580 028.4720 358.4005 0003126 007.6900 352.3749 15.00977608902028 ISS (ZARYA) 1 25544U 98067A 10153.51148505 .00027893 00000-0 18559-3 0 2688 2 25544 051.6463 305.7917 0009169 015.8307 056.1726 15.75145185661167 CXO 1 25867U 99040B 10153.16666667 .00000079 00000-0 10000-3 0 4731 2 25867 067.0638 054.3373 8147435 275.2439 354.8344 00.37804636 6339 ____________________________________________________________________ These 2-Line ...Continue Reading

[list_settings.list_name] Current TLEs

June 1st 2010 PST

HST 1 20580U 90037B 10150.02820027 .00000387 00000-0 16839-4 0 5751 2 20580 028.4720 358.4005 0003126 007.6900 352.3749 15.00977608902028 ISS (ZARYA) 1 25544U 98067A 10152.50217123 .00026765 00000-0 17876-3 0 2610 2 25544 051.6473 310.9826 0009003 011.7112 093.2006 15.75086113661002 CXO 1 25867U 99040B 10153.16666667 .00000079 00000-0 10000-3 0 4731 2 25867 067.0638 054.3373 8147435 275.2439 354.8344 00.37804636 6339 ____________________________________________________________________ These 2-Line ...Continue Reading
  • This mailing list is a public mailing list - anyone may join or leave, at any time.
  • This mailing list is announce-only.

International Space Station (ISS) / Hubble Space Telescope (HST) / Chandra X-Ray Observatory Orbital Data via EMAIL

Privacy Policy:

Private list